Location: Unspecified
(49.2170°N, 0.0000°E)
Time: 22:11:38
(UTC+00:00)

A-11 Canister half - Pass Details

Date: 22 June 2019
Orbit: 1526 x 1683 km, 47.3° (Epoch: 19 July)

Event Time Altitude Azimuth Distance (km) Brightness Sun altitude
Rises 02:46:01 0° 190° (S) 4,764 - -8.7°
Exits shadow 02:47:13 - 187° (S) 4,445 10.9 -8.6°
Reaches altitude 10° 02:50:03 10° 176° (S) 3,757 10.6 -8.3°
Maximum altitude 02:56:40 22° 131° (SE) 2,908 10.5 -7.6°
Drops below altitude 10° 03:03:10 10° 86° (E) 3,706 11.7 -6.9°
Sets 03:07:05 0° 72° (ENE) 4,684 12.7 -6.5°
